[[{"header":{"parameterUnit":"m.s-1","parameterCategory":2,"la1":30.2991,"la2":30.254,"lo1":-89.0895,"lo2":-89.0444,"dy":0.0017,"dx":0.0017,"nx":28,"ny":28,"refTime":"2024-03-16T09:00:00:Z","depth":"0","parameterNumber":2,"parameterNumberName":"U-component_of_CURRENTS"},"data":[0,0,0,0,0,0,0,0,0,0,0,0,0,0,0,0,0,0,0,0,0,0,0,0,0,0,0,0,0,0,0,0,0,0,0,0,0,0,0,0,0,0,0,0,0,0,0,0,0,0,0,0,0,0,0,0,0,0,0.2683,0.2683,0,0.2687,0.2687,0.2687,0.2682,0.2682,0.2683,0.2683,0.2669,0.2669,0.2668,0,0,0,0,0,0,0,0,0,0,0,0,0,0.2676,0.2676,0.2683,0.2683,0.2684,0.2687,0.2687,0.2687,0.2682,0.2682,0.2683,0.2683,0.2669,0.2669,0.2668,0,0,0,0,0,0,0,0,0,0,0,0,0,0.2676,0.2676,0.2683,0.2684,0.2685,0.2687,0.2687,0.2687,0.2682,0.2682,0.2683,0.2683,0.2669,0.2669,0.2668,0.266,0,0,0.2666,0.2665,0,0,0,0,0,0,0,0,0.2676,0.2676,0.2684,0.2684,0.2685,0.2687,0.268,0.2678,0.2682,0.268,0.2683,0.2683,0.2675,0.2674,0.267,0.2659,0.2659,0.2666,0.2665,0.2665,0.2665,0,0,0,0,0,0,0,0.2676,0.2676,0.2681,0.2684,0.2685,0.2687,0.2686,0.2679,0.2674,0.268,0.268,0.2686,0.2675,0.2671,0.267,0.2658,0.2666,0.2665,0.2665,0.2664,0.2693,0.2695,0,0,0,0,0,0,0.2682,0.2676,0.2681,0.2682,0.2684,0.2687,0.2686,0.2684,0.2674,0.2674,0.2686,0.2686,0.2672,0.2671,0.2669,0.2718,0.2665,0.2664,0.2664,0.2692,0.2694,0.2695,0,0,0,0,0,0,0.2681,0.2682,0.2681,0.2682,0.2683,0.2687,0.2684,0.2684,0.2685,0.2679,0.2678,0.2689,0.2672,0.267,0.2674,0.2715,0.2664,0.2663,0.2691,0.2693,0.2694,0.2778,0,0,0,0,0,0,0.2681,0.2681,0.2678,0.2682,0.2683,0.2689,0.2684,0.2684,0.269,0.269,0.2681,0.268,0.2672,0.2675,0.2673,0.2714,0.2663,0.2689,0.2692,0.2694,0.2774,0.2783,0.279,0,0,0,0,0,0.268,0.2673,0.2678,0.2679,0.2679,0.2689,0.269,0.2691,0.269,0.2693,0.2691,0.2681,0.2689,0.2675,0.2673,0.2714,0.2688,0.2691,0.2694,0.277,0.2781,0.279,0,0,0,0,0,0,0.2658,0.2672,0.2678,0.2672,0.2686,0.269,0.2692,0.2695,0.2694,0.2695,0.2686,0.2685,0.2707,0.2692,0.2677,0.2728,0.2691,0.2693,0.275,0.276,0.2768,0.2801,0.2662,0,0,0,0,0,0.2655,0.2658,0.2674,0.267,0.2679,0.2687,0.2691,0.2696,0.2699,0.2699,0.2695,0.2698,0.2715,0.2721,0.2721,0.2741,0.2764,0.2768,0.2776,0.2783,0.2809,0.2876,0.2894,0.2704,0.2704,0.2704,0,0,0.2643,0.2654,0.2652,0.2667,0.2676,0.2698,0.2689,0.2699,0.2725,0.2697,0.2719,0.2719,0.2724,0.2754,0.2764,0.2749,0.2849,0.2787,0.2793,0.2815,0.2881,0.29,0.2916,0.2706,0.2705,0.2705,0,0,0.2633,0.2634,0.2642,0.2661,0.2685,0.2699,0.2706,0.2719,0.2733,0.275,0.2753,0.2784,0.2778,0.2816,0.2829,0.2881,0.2886,0.2872,0.2947,0.3012,0.3029,0.3044,0.3101,0.312,0.2881,0.2881,0.2881,0,0.262,0.2636,0.2645,0.2668,0.2692,0.2705,0.2733,0.2749,0.2762,0.2797,0.2765,0.2825,0.2821,0.2906,0.2927,0.2905,0.2933,0.2911,0.3026,0.3041,0.3055,0.311,0.313,0.2886,0.2885,0.2885,0.2884,0,0.2628,0.2645,0.2653,0.2695,0.272,0.2741,0.278,0.2811,0.2826,0.2854,0.2923,0.2923,0.2972,0.2976,0.2966,0.3075,0.3059,0.3026,0.3007,0.308,0.3132,0.3152,0.2892,0.289,0.2889,0.2888,0,0,0.2588,0.2649,0.2652,0.2691,0.274,0.2767,0.2827,0.29,0.2967,0.2978,0.3066,0.31,0.3115,0.3132,0.3134,0.319,0.3308,0.3155,0.3157,0.3223,0.3455,0.3401,0.3417,0.3293,0.3297,0.33,0.3453,0,0.2597,0.2647,0.268,0.2743,0.2779,0.2834,0.2895,0.2966,0.3022,0.3105,0.3149,0.3214,0.3171,0.3205,0.3259,0.3294,0.3364,0.3271,0.3365,0.3368,0.3321,0.344,0.3269,0.3387,0.3472,0.3475,0.3478,0,0.2598,0.264,0.2698,0.2797,0.282,0.2866,0.2999,0.3056,0.3183,0.323,0.3315,0.3341,0.3443,0.3378,0.3504,0.3443,0.347,0.3486,0.3492,0.3431,0.3353,0.3326,0.342,0.338,0.3508,0.3506,0.3504,0,0.2576,0.2657,0.2711,0.2739,0.2845,0.2905,0.2972,0.3099,0.3168,0.3323,0.3378,0.3496,0.3545,0.3608,0.3635,0.3585,0.3761,0.3691,0.3677,0.3672,0.3543,0.352,0.3619,0.3804,0.3804,0.3803,0.3803,0,0.2574,0.2616,0.271,0.274,0.2828,0.2909,0.302,0.3114,0.3247,0.3341,0.3434,0.3517,0.3603,0.3693,0.3711,0.3767,0.3828,0.3734,0.3727,0.3564,0.3543,0.3511,0.3475,0.3809,0.3808,0.3807,0.3806,0,0.2532,0.2589,0.2657,0.2774,0.2815,0.2879,0.3016,0.3098,0.3229,0.3355,0.3403,0.3561,0.369,0.3768,0.3892,0.3855,0.3822,0.3923,0.3727,0.3693,0.36,0.3573,0.3532,0.3415,0.3937,0.3937,0.3937,0,0.251,0.2541,0.2656,0.2699,0.2752,0.2854,0.2921,0.307,0.3148,0.3367,0.3413,0.3598,0.3701,0.3869,0.3876,0.3945,0.3843,0.3812,0.3684,0.3621,0.3586,0.3442,0.3335,0.3549,0.3546,0.3543,0.3541,0,0.2473,0.2514,0.2572,0.2653,0.2726,0.2805,0.2911,0.296,0.3138,0.3229,0.3373,0.3488,0.3677,0.3682,0.3791,0.3799,0.363,0.3757,0.3747,0.3358,0.3154,0.3026,0.3427,0.3517,0.3519,0.3521,0.3522,0.3523,0.2438,0.2462,0.2535,0.2601,0.2673,0.273,0.2746,0.2852,0.2937,0.3037,0.3223,0.3323,0.3464,0.3585,0.3581,0.3514,0.3483,0.3406,0.3404,0.3285,0.3092,0.3448,0.3485,0.3487,0.3489,0.3491,0.3492,0,0.2377,0.2416,0.248,0.2539,0.2557,0.2638,0.2709,0.2691,0.2709,0.2874,0.2952,0.3096,0.3136,0.3258,0.3286,0.3186,0.3,0.3124,0.2892,0.2819,0.3203,0.3106,0.2993,0.2994,0.2994,0.2994,0.2994,0.2994,0.2353,0.2369,0.2396,0.2397,0.2433,0.2408,0.2411,0.2408,0.2484,0.2538,0.2628,0.2755,0.3063,0.3173,0.313,0.3034,0.2809,0.2663,0.2688,0.2989,0.3014,0.3038,0.2942,0.2798,0.2798,0.2143,0.2139,0.2136]},{"header":{"parameterUnit":"m.s-1","parameterCategory":2,"la1":30.2991,"la2":30.254,"lo1":-89.0895,"lo2":-89.0444,"dy":0.0017,"dx":0.0017,"nx":28,"ny":28,"refTime":"2024-03-16T09:00:00:Z","depth":"0","parameterNumber":3,"parameterNumberName":"V-component_of_CURRENTS"},"data":[0,0,0,0,0,0,0,0,0,0,0,0,0,0,0,0,0,0,0,0,0,0,0,0,0,0,0,0,0,0,0,0,0,0,0,0,0,0,0,0,0,0,0,0,0,0,0,0,0,0,0,0,0,0,0,0,0,0,-0.0254,-0.0255,0,-0.0313,-0.0314,-0.0314,-0.0351,-0.0351,-0.0351,-0.0351,-0.0428,-0.043,-0.0432,0,0,0,0,0,0,0,0,0,0,0,0,0,-0.0225,-0.0225,-0.0254,-0.0255,-0.0255,-0.0313,-0.0314,-0.0314,-0.0351,-0.0351,-0.0351,-0.0351,-0.0427,-0.043,-0.0432,0,0,0,0,0,0,0,0,0,0,0,0,0,-0.0257,-0.0225,-0.0254,-0.028,-0.0282,-0.0312,-0.0314,-0.0315,-0.0351,-0.0351,-0.0351,-0.0351,-0.0427,-0.043,-0.0432,-0.0447,0,0,-0.0441,-0.0443,0,0,0,0,0,0,0,0,-0.0255,-0.0258,-0.0275,-0.0278,-0.0281,-0.0324,-0.0331,-0.036,-0.0351,-0.0326,-0.0351,-0.0351,-0.0394,-0.04,-0.0412,-0.0451,-0.0454,-0.0442,-0.0443,-0.0445,-0.0445,0,0,0,0,0,0,0,-0.0252,-0.0256,-0.0278,-0.0276,-0.0279,-0.0306,-0.031,-0.0337,-0.036,-0.0328,-0.0331,-0.0336,-0.0396,-0.0409,-0.0414,-0.0455,-0.0442,-0.0444,-0.0446,-0.0447,-0.0516,-0.0516,0,0,0,0,0,0,-0.024,-0.0253,-0.0277,-0.028,-0.0267,-0.0306,-0.0311,-0.0311,-0.0359,-0.0366,-0.0335,-0.0337,-0.0404,-0.041,-0.0417,-0.0437,-0.0445,-0.0447,-0.0449,-0.0516,-0.0516,-0.0517,0,0,0,0,0,0,-0.0239,-0.0241,-0.0274,-0.0268,-0.0273,-0.0306,-0.0306,-0.0312,-0.0321,-0.0364,-0.0372,-0.0337,-0.0404,-0.0412,-0.0434,-0.0441,-0.0449,-0.0451,-0.0516,-0.0516,-0.0516,-0.0479,0,0,0,0,0,0,-0.0238,-0.0241,-0.0236,-0.0266,-0.0273,-0.0283,-0.0306,-0.0313,-0.0323,-0.0326,-0.0368,-0.0376,-0.0405,-0.0429,-0.0437,-0.0445,-0.0454,-0.0516,-0.0516,-0.0516,-0.048,-0.0478,-0.0476,0,0,0,0,0,-0.0237,-0.0224,-0.0235,-0.0238,-0.0266,-0.0283,-0.0288,-0.0313,-0.0323,-0.0323,-0.0351,-0.0375,-0.0436,-0.0431,-0.044,-0.0449,-0.0516,-0.0516,-0.0516,-0.0481,-0.0478,-0.0476,0,0,0,0,0,0,-0.0202,-0.0228,-0.024,-0.0234,-0.0254,-0.0288,-0.0289,-0.0307,-0.033,-0.0331,-0.0373,-0.0382,-0.0405,-0.0429,-0.0423,-0.047,-0.0481,-0.0483,-0.0452,-0.0449,-0.0447,-0.0425,-0.0456,0,0,0,0,0,-0.0194,-0.0194,-0.0222,-0.0217,-0.0224,-0.0256,-0.0266,-0.0282,-0.0307,-0.0317,-0.0347,-0.0381,-0.0414,-0.0431,-0.046,-0.0482,-0.0497,-0.0495,-0.0493,-0.0491,-0.0479,-0.0511,-0.051,-0.0517,-0.0517,-0.0517,0,0,-0.0179,-0.0192,-0.0192,-0.021,-0.0227,-0.0232,-0.0262,-0.027,-0.0276,-0.0322,-0.0336,-0.0372,-0.0417,-0.0443,-0.0457,-0.0464,-0.0496,-0.0491,-0.0489,-0.0479,-0.0511,-0.051,-0.051,-0.0517,-0.0517,-0.0517,0,0,-0.0148,-0.016,-0.0152,-0.0166,-0.0186,-0.0207,-0.0206,-0.0237,-0.0253,-0.0272,-0.0311,-0.0346,-0.0388,-0.0428,-0.0453,-0.0455,-0.0481,-0.0468,-0.0443,-0.0474,-0.0473,-0.0473,-0.0483,-0.0484,-0.047,-0.047,-0.047,0,-0.0129,-0.0123,-0.0151,-0.0146,-0.0152,-0.0191,-0.0184,-0.0207,-0.0241,-0.0251,-0.0267,-0.0339,-0.0382,-0.0423,-0.0429,-0.0451,-0.0461,-0.0449,-0.047,-0.047,-0.0471,-0.0481,-0.0482,-0.0468,-0.0468,-0.0468,-0.0468,0,-0.0096,-0.0092,-0.0085,-0.0095,-0.0106,-0.0103,-0.0138,-0.0149,-0.0173,-0.0201,-0.0238,-0.03,-0.034,-0.037,-0.0403,-0.0433,-0.0436,-0.0461,-0.0473,-0.0467,-0.0479,-0.0481,-0.0465,-0.0466,-0.0466,-0.0467,0,0,-0.0048,-0.006,-0.0057,-0.0051,-0.0078,-0.0078,-0.0089,-0.011,-0.0104,-0.0158,-0.0163,-0.0246,-0.0279,-0.0309,-0.0363,-0.04,-0.0423,-0.0427,-0.043,-0.043,-0.047,-0.0455,-0.0456,-0.0449,-0.0449,-0.045,-0.0473,0,-0.0013,0.0011,-0.001,0.0012,0.002,-0.0016,-0.0015,-0.004,-0.0068,-0.0081,-0.0162,-0.0186,-0.0256,-0.0272,-0.0325,-0.0389,-0.0427,-0.0412,-0.0481,-0.0483,-0.0465,-0.0458,-0.0435,-0.0452,-0.0476,-0.0476,-0.0476,0,0.0028,0.0037,0.0066,0.0071,0.0073,0.0082,0.0082,0.0076,0.0038,0.0019,-0.0032,-0.009,-0.0158,-0.0215,-0.0325,-0.0308,-0.0383,-0.0441,-0.0444,-0.0442,-0.0472,-0.0465,-0.0456,-0.0626,-0.048,-0.048,-0.0479,0,0.0083,0.0093,0.0121,0.0122,0.012,0.0133,0.0134,0.0112,0.0129,0.0087,0.0097,-0.0003,-0.0025,-0.0145,-0.0271,-0.0295,-0.0378,-0.0429,-0.0489,-0.0488,-0.0487,-0.0485,-0.0644,-0.0509,-0.0509,-0.0509,-0.0509,0,0.0133,0.0157,0.0155,0.0175,0.0223,0.0195,0.0246,0.0233,0.0234,0.028,0.0159,0.0179,-0.0007,-0.0083,-0.0226,-0.0343,-0.0344,-0.0473,-0.0493,-0.0472,-0.0469,-0.0632,-0.0739,-0.051,-0.051,-0.0509,-0.0509,0,0.0194,0.019,0.0229,0.0241,0.0255,0.0293,0.0337,0.0376,0.0361,0.042,0.0415,0.0333,0.0246,0.0058,-0.011,-0.0253,-0.0484,-0.0439,-0.0389,-0.0403,-0.0627,-0.0731,-0.0901,-0.0975,-0.0511,-0.0511,-0.0511,0,0.0227,0.0254,0.0294,0.0331,0.0345,0.0396,0.0445,0.0449,0.0503,0.0533,0.0578,0.0504,0.0491,0.0242,-0.0023,-0.0258,-0.0452,-0.0412,-0.0472,-0.0627,-0.0759,-0.0843,-0.09,-0.0456,-0.0455,-0.0455,-0.0454,0,0.0296,0.0312,0.0347,0.0424,0.0485,0.0551,0.0622,0.0688,0.072,0.0783,0.0864,0.0856,0.0624,0.0411,0.0069,-0.0123,-0.0533,-0.0408,-0.0594,-0.0744,-0.0822,-0.0904,-0.0444,-0.045,-0.045,-0.045,-0.0451,-0.0451,0.0356,0.0397,0.045,0.0525,0.0599,0.0702,0.0781,0.0873,0.0996,0.11,0.1089,0.1121,0.0776,0.0323,0.0048,-0.0463,-0.0496,-0.0634,-0.0748,-0.0819,-0.0895,-0.0408,-0.0424,-0.0425,-0.0425,-0.0425,-0.0425,0,0.0432,0.0474,0.0545,0.0642,0.0739,0.0758,0.0899,0.0991,0.1164,0.1265,0.1342,0.1208,0.0783,0.0309,-0.0359,-0.0733,-0.0892,-0.0959,-0.1097,-0.114,-0.0722,-0.0725,-0.0776,-0.0776,-0.0776,-0.0775,-0.0775,-0.0775,0.0477,0.056,0.059,0.075,0.0821,0.096,0.1048,0.1192,0.1298,0.1433,0.1463,0.1446,0.1103,-0.008,-0.0929,-0.114,-0.1407,-0.1459,-0.1607,-0.1352,-0.1331,-0.1311,-0.134,-0.1519,-0.152,-0.1966,-0.1971,-0.1974]}],[{"header":{"parameterUnit":"m.s-1","parameterCategory":2,"la1":30.2991,"la2":30.254,"lo1":-89.0895,"lo2":-89.0444,"dy":0.0017,"dx":0.0017,"nx":28,"ny":28,"refTime":"2024-03-16T09:00:00:Z","depth":"2","parameterNumber":2,"parameterNumberName":"U-component_of_CURRENTS"},"data":[0,0,0,0,0,0,0,0,0,0,0,0,0,0,0,0,0,0,0,0,0,0,0,0,0,0,0,0,0,0,0,0,0,0,0,0,0,0,0,0,0,0,0,0,0,0,0,0,0,0,0,0,0,0,0,0,0,0,0.2512,0.2512,0,0.2523,0.2523,0.2523,0.2525,0.2525,0.2525,0.2526,0.2522,0.2522,0.2522,0,0,0,0,0,0,0,0,0,0,0,0,0,0.2473,0.2473,0.2512,0.2512,0.2513,0.2523,0.2523,0.2523,0.2525,0.2525,0.2525,0.2526,0.2522,0.2522,0.2522,0,0,0,0,0,0,0,0,0,0,0,0,0,0.2484,0.2473,0.2512,0.2518,0.2518,0.2523,0.2523,0.2523,0.2525,0.2525,0.2526,0.2526,0.2522,0.2522,0.2522,0.2513,0,0,0.252,0.252,0,0,0,0,0,0,0,0,0.2484,0.2485,0.2516,0.2517,0.2518,0.2526,0.2508,0.252,0.2525,0.2519,0.2526,0.2526,0.2524,0.2523,0.252,0.2513,0.2512,0.252,0.252,0.252,0.252,0,0,0,0,0,0,0,0.2483,0.2485,0.2513,0.2517,0.2518,0.2513,0.2515,0.251,0.2517,0.2519,0.252,0.2527,0.2524,0.2521,0.252,0.2512,0.252,0.252,0.252,0.2519,0.2553,0.2554,0,0,0,0,0,0,0.2489,0.2484,0.2513,0.2514,0.2505,0.2514,0.2516,0.252,0.2517,0.2518,0.2527,0.2527,0.2521,0.2521,0.252,0.2574,0.252,0.2519,0.2519,0.2551,0.2553,0.2554,0,0,0,0,0,0,0.2488,0.2491,0.2512,0.2502,0.2505,0.2515,0.252,0.2521,0.2529,0.2523,0.2523,0.2536,0.2522,0.2521,0.253,0.2571,0.2519,0.2519,0.255,0.2552,0.2553,0.2639,0,0,0,0,0,0,0.2487,0.2491,0.2497,0.2502,0.2506,0.2524,0.252,0.2521,0.2534,0.2534,0.2531,0.2531,0.2522,0.2531,0.253,0.2569,0.2519,0.2549,0.2551,0.2553,0.2635,0.2643,0.2651,0,0,0,0,0,0.2485,0.2489,0.2497,0.2501,0.2514,0.2525,0.2525,0.2531,0.2534,0.2539,0.2541,0.2531,0.2544,0.2531,0.253,0.257,0.2548,0.255,0.2553,0.2631,0.2642,0.2651,0,0,0,0,0,0,0.2472,0.249,0.2499,0.2508,0.2522,0.2526,0.2532,0.2538,0.2543,0.2547,0.2539,0.2538,0.2565,0.2549,0.2535,0.2585,0.2547,0.2549,0.2607,0.2617,0.2625,0.2659,0.2518,0,0,0,0,0,0.2474,0.2483,0.2501,0.2509,0.2519,0.2529,0.2535,0.2542,0.2548,0.2551,0.255,0.2554,0.2571,0.2579,0.2579,0.2601,0.2617,0.2627,0.2635,0.2642,0.2668,0.2727,0.2744,0.2562,0.2562,0.2562,0,0,0.2469,0.2483,0.2487,0.2508,0.2518,0.2539,0.2533,0.2548,0.2573,0.2549,0.2575,0.2578,0.2581,0.2612,0.2623,0.2607,0.27,0.2645,0.2652,0.2674,0.2732,0.275,0.2766,0.2564,0.2564,0.2564,0,0,0.2468,0.2481,0.2492,0.2508,0.2534,0.2547,0.2556,0.257,0.2586,0.2607,0.2611,0.2645,0.2642,0.2675,0.2688,0.2739,0.2738,0.2731,0.2805,0.2862,0.2879,0.2893,0.2933,0.295,0.2739,0.2739,0.2739,0,0.2464,0.2483,0.2496,0.2516,0.254,0.2555,0.2582,0.2599,0.2616,0.265,0.2624,0.2679,0.2684,0.2757,0.2785,0.2764,0.2784,0.277,0.2876,0.2891,0.2904,0.2941,0.2959,0.2743,0.2743,0.2742,0.2742,0,0.2474,0.2495,0.2504,0.2543,0.2569,0.2589,0.2627,0.2656,0.2676,0.2707,0.2769,0.2774,0.2817,0.2825,0.2827,0.2929,0.2909,0.2878,0.2858,0.2928,0.2962,0.2979,0.2749,0.2748,0.2747,0.2745,0,0,0.245,0.2502,0.2506,0.2537,0.2588,0.2611,0.2669,0.2738,0.2794,0.2813,0.2891,0.2935,0.295,0.2967,0.297,0.3029,0.3146,0.3006,0.3007,0.3056,0.3268,0.319,0.3201,0.3134,0.3138,0.3141,0.3252,0,0.2458,0.25,0.2532,0.2585,0.2615,0.2667,0.2728,0.2797,0.2845,0.292,0.2966,0.3032,0.2998,0.3034,0.3088,0.3137,0.3197,0.3118,0.3183,0.3185,0.3117,0.3221,0.2945,0.3016,0.3269,0.3272,0.3274,0,0.2459,0.2493,0.2544,0.263,0.2651,0.2696,0.2811,0.2866,0.2985,0.3033,0.3104,0.3131,0.3239,0.3186,0.3306,0.3256,0.3282,0.3304,0.3307,0.3223,0.3141,0.2986,0.3038,0.3303,0.33,0.3298,0.3296,0,0.2437,0.2504,0.255,0.2574,0.2671,0.2726,0.2792,0.2909,0.298,0.3117,0.3175,0.3274,0.3334,0.3388,0.3421,0.3385,0.3536,0.3482,0.3432,0.3425,0.3199,0.3167,0.3578,0.3578,0.3578,0.3577,0.3577,0,0.2432,0.2466,0.2547,0.257,0.2654,0.2732,0.2833,0.2921,0.3054,0.3139,0.3229,0.3296,0.3392,0.3463,0.3481,0.3514,0.358,0.3483,0.3467,0.3218,0.3187,0.3433,0.3415,0.3581,0.358,0.358,0.3579,0,0.2394,0.2443,0.2497,0.26,0.2642,0.2705,0.2847,0.291,0.3051,0.3161,0.3215,0.3364,0.346,0.3516,0.3625,0.3585,0.3629,0.3616,0.3313,0.326,0.3466,0.345,0.3595,0.3593,0.3592,0.3591,0.359,0,0.2374,0.2399,0.2499,0.2536,0.2584,0.2683,0.2746,0.2899,0.2961,0.3171,0.3211,0.3371,0.3423,0.3553,0.3551,0.3582,0.3626,0.3329,0.3217,0.3507,0.3477,0.3463,0.345,0.2947,0.2941,0.2936,0.2932,0,0.2338,0.2375,0.2419,0.249,0.2553,0.2624,0.2723,0.2771,0.2935,0.3011,0.3128,0.3208,0.3352,0.3271,0.3335,0.3309,0.3304,0.323,0.3636,0.2983,0.2904,0.2871,0.2878,0.2888,0.2892,0.2896,0.2898,0.29,0.2305,0.2322,0.2377,0.2437,0.2499,0.2543,0.2553,0.2635,0.2703,0.2786,0.294,0.2962,0.3031,0.2999,0.2925,0.2888,0.3113,0.2957,0.2969,0.2986,0.2889,0.2813,0.2761,0.2764,0.2767,0.277,0.2772,0,0.2246,0.2278,0.2324,0.2373,0.2375,0.2457,0.251,0.2473,0.2461,0.2575,0.263,0.2456,0.2429,0.2508,0.2393,0.2411,0.236,0.2303,0.2195,0.2243,0.2284,0.2146,0.1823,0.182,0.1817,0.1814,0,0,0.2222,0.2223,0.224,0.2227,0.2261,0.2223,0.2218,0.2182,0.2215,0.216,0.2156,0.2342,0.245,0.2095,0.2059,0.1918,0.2061,0.185,0.2619,0.2541,0.2578,0.2681,0.2526,0,0,0,0,0]},{"header":{"parameterUnit":"m.s-1","parameterCategory":2,"la1":30.2991,"la2":30.254,"lo1":-89.0895,"lo2":-89.0444,"dy":0.0017,"dx":0.0017,"nx":28,"ny":28,"refTime":"2024-03-16T09:00:00:Z","depth":"2","parameterNumber":3,"parameterNumberName":"V-component_of_CURRENTS"},"data":[0,0,0,0,0,0,0,0,0,0,0,0,0,0,0,0,0,0,0,0,0,0,0,0,0,0,0,0,0,0,0,0,0,0,0,0,0,0,0,0,0,0,0,0,0,0,0,0,0,0,0,0,0,0,0,0,0,0,-0.0072,-0.0073,0,-0.0129,-0.013,-0.0131,-0.0166,-0.0166,-0.0167,-0.0167,-0.0239,-0.0241,-0.0243,0,0,0,0,0,0,0,0,0,0,0,0,0,-0.0022,-0.0022,-0.0072,-0.0073,-0.0073,-0.0129,-0.013,-0.0131,-0.0166,-0.0166,-0.0167,-0.0167,-0.0239,-0.0241,-0.0243,0,0,0,0,0,0,0,0,0,0,0,0,0,-0.0058,-0.0022,-0.0072,-0.0097,-0.01,-0.0129,-0.013,-0.0131,-0.0166,-0.0166,-0.0167,-0.0167,-0.0238,-0.0241,-0.0243,-0.0256,0,0,-0.0251,-0.0253,0,0,0,0,0,0,0,0,-0.0056,-0.006,-0.0093,-0.0096,-0.0099,-0.0141,-0.0139,-0.0173,-0.0166,-0.0142,-0.0167,-0.0167,-0.0207,-0.0212,-0.0223,-0.0259,-0.0262,-0.0252,-0.0253,-0.0254,-0.0255,0,0,0,0,0,0,0,-0.0053,-0.0058,-0.0095,-0.0094,-0.0097,-0.0116,-0.0121,-0.0146,-0.0173,-0.0144,-0.0146,-0.0152,-0.0209,-0.022,-0.0225,-0.0263,-0.0252,-0.0254,-0.0256,-0.0257,-0.0313,-0.0313,0,0,0,0,0,0,-0.0044,-0.0055,-0.0093,-0.0097,-0.0077,-0.0116,-0.0122,-0.0127,-0.0173,-0.018,-0.0152,-0.0153,-0.0216,-0.0222,-0.0228,-0.024,-0.0254,-0.0257,-0.0258,-0.0313,-0.0313,-0.0313,0,0,0,0,0,0,-0.0042,-0.0046,-0.0091,-0.0077,-0.0084,-0.0117,-0.0122,-0.0128,-0.014,-0.0178,-0.0186,-0.0157,-0.0216,-0.0224,-0.0245,-0.0243,-0.0258,-0.0261,-0.0313,-0.0313,-0.0313,-0.0267,0,0,0,0,0,0,-0.004,-0.0045,-0.0047,-0.0076,-0.0084,-0.0102,-0.0122,-0.0129,-0.0143,-0.0145,-0.0185,-0.0192,-0.0217,-0.0241,-0.0248,-0.0247,-0.0263,-0.0313,-0.0313,-0.0313,-0.0268,-0.0265,-0.0262,0,0,0,0,0,-0.0038,-0.0034,-0.0046,-0.0051,-0.0084,-0.0102,-0.0107,-0.0132,-0.0142,-0.0144,-0.017,-0.0191,-0.0244,-0.0243,-0.0251,-0.0251,-0.0313,-0.0313,-0.0313,-0.027,-0.0266,-0.0262,0,0,0,0,0,0,-0.0012,-0.0038,-0.0052,-0.0056,-0.0076,-0.0107,-0.011,-0.0128,-0.015,-0.0153,-0.0189,-0.0198,-0.0216,-0.0239,-0.0236,-0.0266,-0.0282,-0.0284,-0.0247,-0.0243,-0.024,-0.0221,-0.0265,0,0,0,0,0,-0.0006,-0.001,-0.0039,-0.0042,-0.005,-0.008,-0.009,-0.0107,-0.013,-0.014,-0.0169,-0.0198,-0.0222,-0.0236,-0.0261,-0.0277,-0.0294,-0.0282,-0.0279,-0.0276,-0.0266,-0.0293,-0.0292,-0.0312,-0.0312,-0.0312,0,0,0.0002,-0.0011,-0.0015,-0.0036,-0.0053,-0.0055,-0.0087,-0.0097,-0.0099,-0.0145,-0.0155,-0.0188,-0.0224,-0.0241,-0.0251,-0.0259,-0.0279,-0.0276,-0.0273,-0.0264,-0.0293,-0.0291,-0.0289,-0.0312,-0.0312,-0.0312,0,0,0.0026,0.0008,0.0014,0.0002,-0.0018,-0.0036,-0.0036,-0.0067,-0.008,-0.0096,-0.013,-0.0158,-0.0195,-0.0221,-0.0238,-0.0233,-0.0261,-0.0243,-0.0212,-0.0239,-0.0237,-0.0236,-0.0249,-0.025,-0.0242,-0.0242,-0.0241,0,0.0039,0.0042,0.0013,0.0019,0.0017,-0.0022,-0.0012,-0.0031,-0.0065,-0.0068,-0.0091,-0.014,-0.0183,-0.0196,-0.0204,-0.0225,-0.0239,-0.0223,-0.0234,-0.0233,-0.0233,-0.0247,-0.0248,-0.0239,-0.024,-0.024,-0.024,0,0.0067,0.007,0.0076,0.007,0.0062,0.0066,0.0038,0.0031,0.0009,-0.0014,-0.0033,-0.0088,-0.0114,-0.014,-0.0177,-0.0192,-0.0202,-0.0226,-0.0241,-0.0228,-0.0244,-0.0245,-0.0236,-0.0237,-0.0238,-0.0238,0,0,0.0101,0.0097,0.01,0.0114,0.0092,0.0096,0.0095,0.0087,0.0108,0.0054,0.0069,-0.0004,-0.0034,-0.0056,-0.0105,-0.0142,-0.0169,-0.0183,-0.0186,-0.019,-0.0216,-0.0226,-0.0229,-0.0195,-0.0195,-0.0195,-0.0226,0,0.0136,0.0166,0.0149,0.0182,0.0197,0.017,0.0178,0.0165,0.0152,0.0155,0.0088,0.0073,-0.0001,-0.0014,-0.0061,-0.0139,-0.0172,-0.0157,-0.0233,-0.0234,-0.0241,-0.0232,-0.0208,-0.0234,-0.0228,-0.0228,-0.0228,0,0.0173,0.0191,0.0228,0.0252,0.0257,0.027,0.0297,0.03,0.0285,0.0272,0.0244,0.0191,0.0126,0.0062,-0.0051,-0.0037,-0.0121,-0.0186,-0.0189,-0.0214,-0.0248,-0.0248,-0.0238,-0.0232,-0.0231,-0.0231,-0.0231,0,0.0227,0.0251,0.0289,0.0295,0.0309,0.0329,0.0338,0.0339,0.0363,0.0348,0.0359,0.0283,0.0251,0.0136,-0.0013,-0.0034,-0.0129,-0.0174,-0.0253,-0.0255,-0.0256,-0.0257,-0.0247,-0.0247,-0.0247,-0.0247,-0.0246,0,0.0276,0.031,0.0322,0.0348,0.0406,0.039,0.0457,0.0457,0.0473,0.0526,0.0424,0.045,0.0265,0.0183,0.0037,-0.0103,-0.009,-0.0239,-0.0263,-0.024,-0.0239,-0.0257,-0.0258,-0.0248,-0.0247,-0.0247,-0.0247,0,0.0328,0.0334,0.0387,0.0418,0.0435,0.0479,0.0533,0.0588,0.058,0.0649,0.064,0.057,0.0465,0.0287,0.0111,-0.0025,-0.017,-0.0222,-0.0176,-0.0195,-0.029,-0.0288,-0.0316,-0.0317,-0.0317,-0.0318,-0.0318,0,0.0359,0.039,0.0447,0.0491,0.051,0.0572,0.0625,0.0643,0.071,0.0741,0.0786,0.0696,0.0666,0.0402,0.0148,-0.0091,-0.014,-0.0235,-0.0285,-0.0277,-0.0297,-0.0295,-0.0292,-0.0267,-0.0267,-0.0267,-0.0267,0,0.0423,0.0441,0.0488,0.0572,0.0639,0.0716,0.0795,0.0861,0.0905,0.0954,0.1013,0.0983,0.0741,0.0508,0.0169,-0.0003,-0.0202,-0.0242,-0.0238,-0.0254,-0.0234,-0.0253,-0.0252,-0.0267,-0.0267,-0.0267,-0.0267,-0.0267,0.0478,0.0521,0.0584,0.0666,0.0746,0.085,0.093,0.1022,0.1128,0.1201,0.1185,0.114,0.0875,0.044,0.0148,-0.018,-0.0174,-0.0302,-0.0301,-0.03,-0.029,-0.0272,-0.0309,-0.0309,-0.0309,-0.0309,-0.031,0,0.0546,0.0591,0.0673,0.0775,0.0872,0.0897,0.1039,0.1117,0.1253,0.1305,0.1337,0.1092,0.0825,0.0501,0.0032,-0.0245,-0.0281,-0.0348,-0.0326,-0.0323,-0.0322,-0.0313,-0.0339,-0.0339,-0.034,-0.0341,0,0,0.0587,0.0672,0.0706,0.0865,0.0938,0.1068,0.1152,0.1259,0.1323,0.1372,0.1344,0.1284,0.0918,0.0578,0.0205,-0.0068,-0.0144,-0.0135,-0.0082,-0.001,-0.0005,-0.0264,-0.0244,0,0,0,0,0]}],[{"header":{"parameterUnit":"m.s-1","parameterCategory":2,"la1":30.2991,"la2":30.254,"lo1":-89.0895,"lo2":-89.0444,"dy":0.0017,"dx":0.0017,"nx":28,"ny":28,"refTime":"2024-03-16T09:00:00:Z","depth":"4","parameterNumber":2,"parameterNumberName":"U-component_of_CURRENTS"},"data":[0,0,0,0,0,0,0,0,0,0,0,0,0,0,0,0,0,0,0,0,0,0,0,0,0,0,0,0,0,0,0,0,0,0,0,0,0,0,0,0,0,0,0,0,0,0,0,0,0,0,0,0,0,0,0,0,0,0,0.1628,0.1629,0,0.1681,0.1681,0.1682,0.1731,0.1732,0.1733,0.1734,0.1792,0.1792,0.1793,0,0,0,0,0,0,0,0,0,0,0,0,0,0.1535,0.1536,0.1628,0.1629,0.163,0.1681,0.1681,0.1682,0.1731,0.1732,0.1733,0.1734,0.1791,0.1792,0.1793,0,0,0,0,0,0,0,0,0,0,0,0,0,0.1577,0.1536,0.1628,0.1663,0.1666,0.1681,0.1681,0.1682,0.1731,0.1732,0.1733,0.1735,0.1791,0.1792,0.1793,0.1774,0,0,0.1797,0.1797,0,0,0,0,0,0,0,0,0.1575,0.158,0.1657,0.166,0.1665,0.1703,0.167,0.1714,0.173,0.1703,0.1734,0.1735,0.1763,0.1767,0.177,0.1776,0.1779,0.1797,0.1797,0.1798,0.1798,0,0,0,0,0,0,0,0.1572,0.1578,0.1646,0.1657,0.1662,0.1664,0.1671,0.1678,0.1723,0.1706,0.171,0.172,0.1766,0.1769,0.1772,0.178,0.1797,0.1798,0.1798,0.1799,0.1872,0.1873,0,0,0,0,0,0,0.1572,0.1576,0.1644,0.1648,0.1625,0.1665,0.1673,0.1687,0.1723,0.1731,0.1719,0.1722,0.1766,0.177,0.1774,0.1839,0.1798,0.1799,0.1799,0.1871,0.1872,0.1874,0,0,0,0,0,0,0.157,0.1577,0.1642,0.1615,0.1624,0.1666,0.1681,0.1688,0.1729,0.1734,0.1741,0.1758,0.1767,0.1772,0.1812,0.1838,0.1799,0.18,0.1869,0.1871,0.1873,0.1914,0,0,0,0,0,0,0.1567,0.1576,0.1603,0.1615,0.1625,0.1673,0.168,0.1688,0.1732,0.1738,0.1768,0.1773,0.1769,0.1811,0.1814,0.1839,0.1801,0.1868,0.187,0.1873,0.1911,0.1917,0.1922,0,0,0,0,0,0.1563,0.1584,0.1604,0.1613,0.1655,0.1674,0.168,0.1711,0.1733,0.1753,0.1778,0.1774,0.1828,0.1813,0.1816,0.1842,0.1867,0.187,0.1872,0.1908,0.1916,0.1922,0,0,0,0,0,0,0.156,0.1592,0.1613,0.1646,0.1672,0.1685,0.1712,0.1731,0.1766,0.1784,0.1788,0.1794,0.184,0.1836,0.1819,0.1872,0.1848,0.1851,0.1874,0.1881,0.1887,0.1894,0.1802,0,0,0,0,0,0.1571,0.1599,0.1625,0.1656,0.1672,0.17,0.172,0.1741,0.1765,0.1784,0.1806,0.1829,0.1846,0.1862,0.1876,0.1902,0.1913,0.1923,0.1928,0.1933,0.1942,0.1981,0.1991,0.1883,0.1883,0.1883,0,0,0.1579,0.1602,0.162,0.1659,0.1683,0.1706,0.1716,0.1755,0.178,0.1783,0.1835,0.1853,0.1859,0.1891,0.1911,0.1897,0.1971,0.1937,0.1941,0.1947,0.1985,0.1995,0.2005,0.1885,0.1885,0.1885,0,0,0.1593,0.1632,0.1656,0.1679,0.1724,0.1736,0.1756,0.179,0.1818,0.1861,0.1871,0.1907,0.1937,0.1944,0.1949,0.1994,0.2002,0.2006,0.2038,0.2076,0.2085,0.2094,0.2127,0.2138,0.2006,0.2006,0.2006,0,0.1607,0.1637,0.1666,0.1692,0.1714,0.1753,0.1777,0.1804,0.185,0.1872,0.1889,0.1951,0.1959,0.1989,0.2009,0.2007,0.2033,0.2009,0.2084,0.2092,0.21,0.2132,0.2143,0.2008,0.2008,0.2008,0.2008,0,0.1624,0.1663,0.1679,0.1724,0.175,0.178,0.1814,0.1853,0.1894,0.1919,0.1982,0.2002,0.204,0.2047,0.2044,0.21,0.2103,0.2088,0.2065,0.2113,0.2144,0.2155,0.2012,0.2011,0.201,0.201,0,0,0.1613,0.1679,0.1689,0.1712,0.177,0.1785,0.1835,0.1877,0.1917,0.1974,0.2027,0.2063,0.2096,0.2105,0.2114,0.2145,0.2221,0.2149,0.215,0.2179,0.2318,0.2187,0.2187,0.2227,0.2229,0.2231,0.2319,0,0.1622,0.1666,0.17,0.1743,0.1764,0.1812,0.1849,0.1897,0.1952,0.2014,0.2055,0.2116,0.2111,0.215,0.2182,0.2218,0.2252,0.2199,0.2269,0.2271,0.2147,0.2195,0.2237,0.2327,0.233,0.2331,0.2333,0,0.162,0.165,0.1696,0.1748,0.1763,0.1799,0.1866,0.1911,0.1998,0.2047,0.2119,0.2164,0.2236,0.2226,0.2315,0.2289,0.2313,0.233,0.2333,0.2204,0.216,0.2269,0.2353,0.2351,0.235,0.2348,0.2347,0,0.1577,0.164,0.1676,0.1697,0.1766,0.18,0.1846,0.1927,0.1975,0.2091,0.2151,0.2231,0.2299,0.2346,0.2394,0.2373,0.2486,0.2451,0.2352,0.2343,0.2416,0.2407,0.2509,0.2509,0.2509,0.2508,0.2508,0,0.155,0.158,0.1665,0.1683,0.1725,0.1788,0.1858,0.1914,0.2017,0.2077,0.2181,0.2241,0.2339,0.241,0.2431,0.2431,0.2519,0.2369,0.2358,0.2432,0.2423,0.2424,0.2413,0.2512,0.2511,0.251,0.251,0,0.1491,0.1554,0.1594,0.1677,0.171,0.1745,0.1859,0.1902,0.202,0.211,0.2156,0.2283,0.2376,0.2449,0.2532,0.2468,0.2484,0.2459,0.2552,0.2544,0.2307,0.2298,0.235,0.2346,0.2343,0.234,0.2338,0,0.1459,0.1481,0.158,0.1609,0.1654,0.1729,0.1775,0.1892,0.194,0.2112,0.2135,0.2279,0.235,0.2367,0.2452,0.2486,0.2454,0.2439,0.2347,0.2307,0.2293,0.2288,0.2283,0.2333,0.2332,0.2331,0.233,0,0.1396,0.1453,0.1488,0.1546,0.1601,0.1651,0.1731,0.1751,0.1886,0.2015,0.207,0.2124,0.2225,0.2284,0.2333,0.2347,0.2433,0.2404,0.241,0.2323,0.2287,0.2275,0.2273,0.2319,0.232,0.2321,0.2322,0,0.1356,0.1364,0.1426,0.1461,0.1527,0.154,0.1597,0.165,0.1714,0.1889,0.1909,0.2066,0.2198,0.2215,0.2261,0.2269,0.2227,0.2135,0.2154,0.2168,0.2067,0.1991,0.1932,0,0,0,0,0,0.1299,0.1301,0.1331,0.1359,0.1417,0.1456,0.1546,0.1607,0.1741,0.1729,0.181,0.1894,0.1967,0.2052,0.2026,0.2187,0.2237,0.2145,0.2141,0.2256,0.2269,0.2166,0,0,0,0,0,0,0.1263,0.1294,0.1296,0.1268,0.1271,0.1317,0.1371,0.146,0.1462,0.1611,0.1665,0.1784,0.1891,0.1971,0.1994,0.2019,0.1977,0.2247,0.2242,0.2249,0.226,0.2271,0.217,0,0,0,0,0]},{"header":{"parameterUnit":"m.s-1","parameterCategory":2,"la1":30.2991,"la2":30.254,"lo1":-89.0895,"lo2":-89.0444,"dy":0.0017,"dx":0.0017,"nx":28,"ny":28,"refTime":"2024-03-16T09:00:00:Z","depth":"4","parameterNumber":3,"parameterNumberName":"V-component_of_CURRENTS"},"data":[0,0,0,0,0,0,0,0,0,0,0,0,0,0,0,0,0,0,0,0,0,0,0,0,0,0,0,0,0,0,0,0,0,0,0,0,0,0,0,0,0,0,0,0,0,0,0,0,0,0,0,0,0,0,0,0,0,0,0.0079,0.0079,0,0.004,0.0039,0.0039,0.0019,0.0019,0.0019,0.0019,-0.0029,-0.003,-0.0031,0,0,0,0,0,0,0,0,0,0,0,0,0,0.0121,0.012,0.0079,0.0079,0.0078,0.004,0.0039,0.0039,0.0019,0.0019,0.0019,0.0019,-0.0028,-0.003,-0.0031,0,0,0,0,0,0,0,0,0,0,0,0,0,0.0094,0.012,0.0079,0.0064,0.0062,0.004,0.0039,0.0039,0.0019,0.0019,0.0019,0.0019,-0.0028,-0.003,-0.0032,-0.0042,0,0,-0.0037,-0.0038,0,0,0,0,0,0,0,0,0.0096,0.0093,0.0066,0.0065,0.0063,0.0034,0.0036,0.0011,0.0019,0.0035,0.0019,0.0019,-0.0009,-0.0012,-0.0019,-0.0045,-0.0047,-0.0037,-0.0039,-0.0039,-0.004,0,0,0,0,0,0,0,0.0098,0.0094,0.0064,0.0066,0.0063,0.0053,0.0049,0.0032,0.0014,0.0034,0.0032,0.0028,-0.001,-0.0017,-0.002,-0.0047,-0.0037,-0.0039,-0.004,-0.0041,-0.0075,-0.0075,0,0,0,0,0,0,0.0103,0.0096,0.0065,0.0062,0.0079,0.0052,0.0048,0.0043,0.0014,0.001,0.0028,0.0027,-0.0014,-0.0018,-0.0022,-0.0009,-0.0039,-0.0041,-0.0042,-0.0075,-0.0075,-0.0075,0,0,0,0,0,0,0.0104,0.0101,0.0066,0.0078,0.0073,0.0052,0.0046,0.0043,0.0036,0.001,0.0005,0.0026,-0.0014,-0.0019,-0.0033,-0.0012,-0.0042,-0.0044,-0.0076,-0.0075,-0.0075,-0.0001,0,0,0,0,0,0,0.0106,0.0101,0.0101,0.0079,0.0073,0.0058,0.0046,0.0042,0.0033,0.0032,0.0006,0.0002,-0.0015,-0.003,-0.0034,-0.0015,-0.0045,-0.0076,-0.0075,-0.0075,-0.0004,0.0002,0.0006,0,0,0,0,0,0.0107,0.0108,0.0101,0.0097,0.0072,0.0058,0.0054,0.0039,0.0033,0.0033,0.0017,0.0003,-0.003,-0.0031,-0.0037,-0.0018,-0.0076,-0.0075,-0.0075,-0.0006,0.0001,0.0006,0,0,0,0,0,0,0.0125,0.0106,0.0097,0.0092,0.0078,0.0055,0.0053,0.0042,0.0028,0.0028,0.0004,-0.0002,-0.0006,-0.0027,-0.0027,-0.0029,-0.0055,-0.0056,-0.0001,0.0005,0.001,0.0027,-0.0047,0,0,0,0,0,0.0129,0.0126,0.0104,0.0101,0.0095,0.0075,0.0067,0.0057,0.0041,0.0035,0.0017,-0.0001,-0.0009,-0.0014,-0.0032,-0.0033,-0.0062,-0.0026,-0.0021,-0.0016,-0.0007,-0.0034,-0.003,-0.0073,-0.0073,-0.0073,0,0,0.0134,0.0124,0.0121,0.0105,0.0093,0.0095,0.0071,0.0063,0.0071,0.0032,0.0035,0.0013,-0.0008,-0.0006,-0.0009,-0.0019,-0.0021,-0.0015,-0.0011,-0.0005,-0.0033,-0.0029,-0.0025,-0.0073,-0.0073,-0.0073,0,0,0.0148,0.0135,0.014,0.0133,0.0119,0.0109,0.0109,0.0088,0.0085,0.0079,0.0061,0.0055,0.0029,0.0029,0.0024,0.0045,0.0004,0.0033,0.0079,0.0054,0.0057,0.006,0.0023,0.0022,0.004,0.004,0.004,0,0.0156,0.0161,0.0139,0.0144,0.015,0.012,0.0135,0.0125,0.0103,0.0112,0.0088,0.007,0.0052,0.0071,0.008,0.006,0.0028,0.0063,0.0062,0.0064,0.0066,0.0027,0.0025,0.0044,0.0043,0.0043,0.0043,0,0.0175,0.0181,0.0185,0.0188,0.0189,0.0195,0.0185,0.0185,0.0175,0.0168,0.0172,0.0141,0.0135,0.0128,0.0112,0.0123,0.009,0.007,0.0051,0.0075,0.0032,0.0029,0.0049,0.0048,0.0047,0.0046,0,0,0.0192,0.0199,0.0202,0.0222,0.0218,0.0227,0.0242,0.0255,0.0279,0.0247,0.0272,0.0254,0.0231,0.0223,0.0198,0.018,0.0164,0.0134,0.0131,0.0107,0.0091,0.0066,0.006,0.0139,0.0139,0.0139,0.0055,0,0.0218,0.0249,0.0245,0.0286,0.0306,0.03,0.0323,0.0331,0.0328,0.0338,0.0311,0.0316,0.0269,0.0269,0.0243,0.0184,0.0158,0.0187,0.0064,0.006,0.0044,0.0057,0.0139,0.0052,0.0051,0.005,0.005,0,0.0243,0.0266,0.0309,0.0356,0.0366,0.0386,0.0434,0.045,0.0455,0.0452,0.0441,0.0405,0.0383,0.0334,0.0241,0.0256,0.0183,0.0129,0.0124,0.0075,0.003,0.0022,0.0043,0.0044,0.0044,0.0045,0.0045,0,0.0279,0.0317,0.0362,0.0374,0.0411,0.0443,0.0468,0.0488,0.0521,0.0524,0.0533,0.0486,0.0463,0.0369,0.0248,0.0242,0.0132,0.0108,0.0015,0.0011,0.0026,0.0024,0.0043,0.0043,0.0044,0.0044,0.0044,0,0.0313,0.0351,0.0385,0.0411,0.0483,0.0492,0.0564,0.0581,0.0608,0.0647,0.0593,0.0593,0.0469,0.0385,0.027,0.0129,0.0143,0.0026,-0.0007,0.0057,0.0059,0.0023,0.0022,0.0041,0.0041,0.0042,0.0042,0,0.034,0.0358,0.0418,0.0472,0.05,0.0553,0.0631,0.0676,0.069,0.0734,0.0736,0.0674,0.0558,0.0421,0.0266,0.0162,0.0032,-0.0022,0.0054,0.0025,-0.008,-0.0077,-0.0132,-0.0134,-0.0135,-0.0136,-0.0137,0,0.0355,0.0385,0.0466,0.0511,0.054,0.0617,0.0673,0.0718,0.0759,0.0776,0.0792,0.0705,0.0638,0.0404,0.0252,0.0031,-0.0004,-0.0077,-0.0074,-0.0069,-0.0096,-0.009,-0.0085,-0.0139,-0.0139,-0.014,-0.014,0,0.0389,0.0415,0.0465,0.0553,0.0623,0.0705,0.0779,0.0815,0.0855,0.0868,0.0836,0.0718,0.0586,0.0401,0.0229,0.0071,-0.003,-0.0091,-0.009,-0.0087,-0.0078,-0.0102,-0.0096,-0.0144,-0.0144,-0.0143,-0.0143,0,0.0418,0.0455,0.0516,0.0596,0.0684,0.0759,0.0801,0.0841,0.0884,0.0888,0.0872,0.0734,0.0659,0.042,0.0263,0.0104,0.0057,0.0001,-0.0004,-0.0001,0.0059,0.0092,0.0055,0,0,0,0,0,0.0442,0.0482,0.0555,0.0639,0.0722,0.0773,0.0858,0.0886,0.0916,0.09,0.089,0.0765,0.0532,0.0436,0.0273,0.0224,0.0022,0.0025,-0.0048,-0.0168,-0.0163,-0.0118,0,0,0,0,0,0,0.046,0.0525,0.0553,0.0656,0.0713,0.0809,0.0862,0.0885,0.0875,0.0879,0.0762,0.071,0.0488,0.0625,0.0265,0.0218,0.0145,-0.0078,-0.0082,-0.0171,-0.0166,-0.0162,-0.0114,0,0,0,0,0]}]]